Year,Month,Day,Hour,Minute,Value (Times are PST for temperature in C)
2014,08,09,00,00,14.10
2014,08,09,00,01,14.10
2014,08,09,00,02,14.00
2014,08,09,00,03,14.00
2014,08,09,00,04,14.00
2014,08,09,00,05,14.00
2014,08,09,00,06,13.90
2014,08,09,00,07,13.90
2014,08,09,00,08,13.90
2014,08,09,00,09,13.90
2014,08,09,00,10,13.90
2014,08,09,00,11,13.90
2014,08,09,00,12,13.90
2014,08,09,00,13,13.90
2014,08,09,00,14,14.00
2014,08,09,00,15,14.00
2014,08,09,00,16,14.00
2014,08,09,00,17,14.00
2014,08,09,00,18,14.00
2014,08,09,00,19,14.00
2014,08,09,00,20,14.00
2014,08,09,00,21,14.00
2014,08,09,00,22,14.00
2014,08,09,00,23,14.00
2014,08,09,00,24,13.90
2014,08,09,00,25,13.90
2014,08,09,00,26,13.90
2014,08,09,00,27,13.90
2014,08,09,00,28,13.90
2014,08,09,00,29,13.90
2014,08,09,00,30,13.90
2014,08,09,00,31,13.90
2014,08,09,00,32,13.90
2014,08,09,00,33,13.90
2014,08,09,00,34,13.90
2014,08,09,00,35,13.90
2014,08,09,00,36,13.90
2014,08,09,00,37,13.90
2014,08,09,00,38,13.90
2014,08,09,00,39,13.90
2014,08,09,00,40,13.80
2014,08,09,00,41,13.80
2014,08,09,00,42,13.80
2014,08,09,00,43,13.80
2014,08,09,00,44,13.80
2014,08,09,00,45,13.80
2014,08,09,00,46,13.80
2014,08,09,00,47,13.80
2014,08,09,00,48,13.80
2014,08,09,00,49,13.90
2014,08,09,00,50,13.90
2014,08,09,00,51,14.00
2014,08,09,00,52,14.10
2014,08,09,00,53,14.10
2014,08,09,00,54,14.10
2014,08,09,00,55,14.10
2014,08,09,00,56,14.10
2014,08,09,00,57,14.10
2014,08,09,00,58,14.10
2014,08,09,00,59,14.10
2014,08,09,01,00,14.10
2014,08,09,01,01,14.20
2014,08,09,01,02,14.20
2014,08,09,01,03,14.20
2014,08,09,01,04,14.20
2014,08,09,01,05,14.20
2014,08,09,01,06,14.20
2014,08,09,01,07,14.20
2014,08,09,01,08,14.20
2014,08,09,01,09,14.10
2014,08,09,01,10,14.10
2014,08,09,01,11,14.10
2014,08,09,01,12,14.10
2014,08,09,01,13,14.00
2014,08,09,01,14,14.00
2014,08,09,01,15,14.00
2014,08,09,01,16,13.90
2014,08,09,01,17,13.90
2014,08,09,01,18,13.90
2014,08,09,01,19,13.80
2014,08,09,01,20,13.80
2014,08,09,01,21,13.80
2014,08,09,01,22,13.70
2014,08,09,01,23,13.70
2014,08,09,01,24,13.70
2014,08,09,01,25,13.70
2014,08,09,01,26,13.60
2014,08,09,01,27,13.60
2014,08,09,01,28,13.60
2014,08,09,01,29,13.50
2014,08,09,01,30,13.50
2014,08,09,01,31,13.50
2014,08,09,01,32,13.40
2014,08,09,01,33,13.40
2014,08,09,01,34,13.40
2014,08,09,01,35,13.40
2014,08,09,01,36,13.40
2014,08,09,01,37,13.30
2014,08,09,01,38,13.30
2014,08,09,01,39,13.30
2014,08,09,01,40,13.30
2014,08,09,01,41,13.30
2014,08,09,01,42,13.30
2014,08,09,01,43,13.30
2014,08,09,01,44,13.30
2014,08,09,01,45,13.30
2014,08,09,01,46,13.30
2014,08,09,01,47,13.30
2014,08,09,01,48,13.30
2014,08,09,01,49,13.30
2014,08,09,01,50,13.30
2014,08,09,01,51,13.20
2014,08,09,01,52,13.20
2014,08,09,01,53,13.20
2014,08,09,01,54,13.20
2014,08,09,01,55,13.20
2014,08,09,01,56,13.20
2014,08,09,01,57,13.20
2014,08,09,01,58,13.20
2014,08,09,01,59,13.20
2014,08,09,02,00,13.20
2014,08,09,02,01,13.10
2014,08,09,02,02,13.10
2014,08,09,02,03,13.20
2014,08,09,02,04,13.10
2014,08,09,02,05,13.10
2014,08,09,02,06,13.10
2014,08,09,02,07,13.10
2014,08,09,02,08,13.10
2014,08,09,02,09,13.10
2014,08,09,02,10,13.10
2014,08,09,02,11,13.10
2014,08,09,02,12,13.10
2014,08,09,02,13,13.10
2014,08,09,02,14,13.10
2014,08,09,02,15,13.00
2014,08,09,02,16,13.00
2014,08,09,02,17,13.00
2014,08,09,02,18,13.00
2014,08,09,02,19,12.90
2014,08,09,02,20,12.90
2014,08,09,02,21,12.90
2014,08,09,02,22,13.00
2014,08,09,02,23,13.00
2014,08,09,02,24,13.00
2014,08,09,02,25,13.00
2014,08,09,02,26,13.00
2014,08,09,02,27,13.00
2014,08,09,02,28,13.00
2014,08,09,02,29,13.00
2014,08,09,02,30,13.00
2014,08,09,02,31,13.00
2014,08,09,02,32,13.00
2014,08,09,02,33,13.10
2014,08,09,02,34,13.10
2014,08,09,02,35,13.10
2014,08,09,02,36,13.20
2014,08,09,02,37,13.10
2014,08,09,02,38,13.20
2014,08,09,02,39,13.20
2014,08,09,02,40,13.20
2014,08,09,02,41,13.20
2014,08,09,02,42,13.30
2014,08,09,02,43,13.40
2014,08,09,02,44,13.60
2014,08,09,02,45,13.70
2014,08,09,02,46,13.80
2014,08,09,02,47,13.80
2014,08,09,02,48,13.90
2014,08,09,02,49,14.00
2014,08,09,02,50,14.10
2014,08,09,02,51,14.10
2014,08,09,02,52,14.20
2014,08,09,02,53,14.30
2014,08,09,02,54,14.40
2014,08,09,02,55,14.50
2014,08,09,02,56,14.60
2014,08,09,02,57,14.70
2014,08,09,02,58,14.80
2014,08,09,02,59,14.90
2014,08,09,03,00,15.00
2014,08,09,03,01,15.10
2014,08,09,03,02,15.30
2014,08,09,03,03,15.40
2014,08,09,03,04,15.50
2014,08,09,03,05,15.60
2014,08,09,03,06,15.70
2014,08,09,03,07,15.80
2014,08,09,03,08,15.90
2014,08,09,03,09,16.00
2014,08,09,03,10,16.10
2014,08,09,03,11,16.20
2014,08,09,03,12,16.30
2014,08,09,03,13,16.30
2014,08,09,03,14,16.40
2014,08,09,03,15,16.50
2014,08,09,03,16,16.60
2014,08,09,03,17,16.60
2014,08,09,03,18,16.70
2014,08,09,03,19,16.70
2014,08,09,03,20,16.80
2014,08,09,03,21,16.80
2014,08,09,03,22,16.90
2014,08,09,03,23,16.90
2014,08,09,03,24,16.90
2014,08,09,03,25,17.00
2014,08,09,03,26,17.00
2014,08,09,03,27,17.00
2014,08,09,03,28,17.10
2014,08,09,03,29,17.10
2014,08,09,03,30,17.10
2014,08,09,03,31,17.10
2014,08,09,03,32,17.10
2014,08,09,03,33,17.10
2014,08,09,03,34,17.10
2014,08,09,03,35,17.20
2014,08,09,03,36,17.20
2014,08,09,03,37,17.20
2014,08,09,03,38,17.20
2014,08,09,03,39,17.20
2014,08,09,03,40,17.30
2014,08,09,03,41,17.30
2014,08,09,03,42,17.30
2014,08,09,03,43,17.20
2014,08,09,03,44,17.20
2014,08,09,03,45,17.20
2014,08,09,03,46,17.20
2014,08,09,03,47,17.20
2014,08,09,03,48,17.20
2014,08,09,03,49,17.20
2014,08,09,03,50,17.20
2014,08,09,03,51,17.20
2014,08,09,03,52,17.20
2014,08,09,03,53,17.20
2014,08,09,03,54,17.20
2014,08,09,03,55,17.20
2014,08,09,03,56,17.10
2014,08,09,03,57,17.10
2014,08,09,03,58,17.00
2014,08,09,03,59,17.00
2014,08,09,04,00,17.00
2014,08,09,04,01,17.00
2014,08,09,04,02,16.90
2014,08,09,04,03,16.90
2014,08,09,04,04,16.90
2014,08,09,04,05,16.90
2014,08,09,04,06,16.90
2014,08,09,04,07,16.90
2014,08,09,04,08,16.90
2014,08,09,04,09,16.90
2014,08,09,04,10,16.90
2014,08,09,04,11,16.80
2014,08,09,04,12,16.80
2014,08,09,04,13,16.80
2014,08,09,04,14,16.80
2014,08,09,04,15,16.80
2014,08,09,04,16,16.80
2014,08,09,04,17,16.80
2014,08,09,04,18,16.90
2014,08,09,04,19,16.90
2014,08,09,04,20,16.90
2014,08,09,04,21,16.90
2014,08,09,04,22,16.90
2014,08,09,04,23,16.90
2014,08,09,04,24,16.90
2014,08,09,04,25,16.90
2014,08,09,04,26,16.80
2014,08,09,04,27,16.80
2014,08,09,04,28,16.80
2014,08,09,04,29,16.80
2014,08,09,04,30,16.80
2014,08,09,04,31,16.70
2014,08,09,04,32,16.70
2014,08,09,04,33,16.70
2014,08,09,04,34,16.70
2014,08,09,04,35,16.70
2014,08,09,04,36,16.60
2014,08,09,04,37,16.60
2014,08,09,04,38,16.60
2014,08,09,04,39,16.60
2014,08,09,04,40,16.60
2014,08,09,04,41,16.60
2014,08,09,04,42,16.60
2014,08,09,04,43,16.60
2014,08,09,04,44,16.60
2014,08,09,04,45,16.60
2014,08,09,04,46,16.60
2014,08,09,04,47,16.60
2014,08,09,04,48,16.60
2014,08,09,04,49,16.60
2014,08,09,04,50,16.60
2014,08,09,04,51,16.60
2014,08,09,04,52,16.50
2014,08,09,04,53,16.50
2014,08,09,04,54,16.50
2014,08,09,04,55,16.40
2014,08,09,04,56,16.40
2014,08,09,04,57,16.40
2014,08,09,04,58,16.40
2014,08,09,04,59,16.40
2014,08,09,05,00,16.30
2014,08,09,05,01,16.30
2014,08,09,05,02,16.30
2014,08,09,05,03,16.20
2014,08,09,05,04,16.20
2014,08,09,05,05,16.10
2014,08,09,05,06,16.10
2014,08,09,05,07,16.00
2014,08,09,05,08,15.90
2014,08,09,05,09,15.80
2014,08,09,05,10,15.80
2014,08,09,05,11,15.80
2014,08,09,05,12,15.80
2014,08,09,05,13,15.70
2014,08,09,05,14,15.70
2014,08,09,05,15,15.70
2014,08,09,05,16,15.70
2014,08,09,05,17,15.60
2014,08,09,05,18,15.60
2014,08,09,05,19,15.60
2014,08,09,05,20,15.60
2014,08,09,05,21,15.60
2014,08,09,05,22,15.60
2014,08,09,05,23,15.50
2014,08,09,05,24,15.50
2014,08,09,05,25,15.50
2014,08,09,05,26,15.50
2014,08,09,05,27,15.50
2014,08,09,05,28,15.50
2014,08,09,05,29,15.50
2014,08,09,05,30,15.50
2014,08,09,05,31,15.60
2014,08,09,05,32,15.60
2014,08,09,05,33,15.70
2014,08,09,05,34,15.80
2014,08,09,05,35,16.00
2014,08,09,05,36,16.10
2014,08,09,05,37,16.20
2014,08,09,05,38,16.20
2014,08,09,05,39,16.30
2014,08,09,05,40,16.40
2014,08,09,05,41,16.40
2014,08,09,05,42,16.40
2014,08,09,05,43,16.40
2014,08,09,05,44,16.40
2014,08,09,05,45,16.40
2014,08,09,05,46,16.40
2014,08,09,05,47,16.40
2014,08,09,05,48,16.40
2014,08,09,05,49,16.30
2014,08,09,05,50,16.30
2014,08,09,05,51,16.30
2014,08,09,05,52,16.30
2014,08,09,05,53,16.20
2014,08,09,05,54,16.20
2014,08,09,05,55,16.20
2014,08,09,05,56,16.20
2014,08,09,05,57,16.10
2014,08,09,05,58,16.10
2014,08,09,05,59,16.10
2014,08,09,06,00,16.10
2014,08,09,06,01,16.10
2014,08,09,06,02,16.10
2014,08,09,06,03,16.20
2014,08,09,06,04,16.20
2014,08,09,06,05,16.20
2014,08,09,06,06,16.20
2014,08,09,06,07,16.20
2014,08,09,06,08,16.20
2014,08,09,06,09,16.20
2014,08,09,06,10,16.20
2014,08,09,06,11,16.20
2014,08,09,06,12,16.20
2014,08,09,06,13,16.20
2014,08,09,06,14,16.30
2014,08,09,06,15,16.30
2014,08,09,06,16,16.30
2014,08,09,06,17,16.30
2014,08,09,06,18,16.30
2014,08,09,06,19,16.30
2014,08,09,06,20,16.40
2014,08,09,06,21,16.40
2014,08,09,06,22,16.40
2014,08,09,06,23,16.40
2014,08,09,06,24,16.40
2014,08,09,06,25,16.30
2014,08,09,06,26,16.30
2014,08,09,06,27,16.30
2014,08,09,06,28,16.30
2014,08,09,06,29,16.30
2014,08,09,06,30,16.20
2014,08,09,06,31,16.20
2014,08,09,06,32,16.20
2014,08,09,06,33,16.20
2014,08,09,06,34,16.20
2014,08,09,06,35,16.10
2014,08,09,06,36,16.10
2014,08,09,06,37,16.10
2014,08,09,06,38,16.10
2014,08,09,06,39,16.10
2014,08,09,06,40,16.10
2014,08,09,06,41,16.10
2014,08,09,06,42,16.10
2014,08,09,06,43,16.10
2014,08,09,06,44,16.10
2014,08,09,06,45,16.10
2014,08,09,06,46,16.10
2014,08,09,06,47,16.10
2014,08,09,06,48,16.10
2014,08,09,06,49,16.10
2014,08,09,06,50,16.10
2014,08,09,06,51,16.10
2014,08,09,06,52,16.00
2014,08,09,06,53,16.00
2014,08,09,06,54,16.00
2014,08,09,06,55,16.00
2014,08,09,06,56,15.90
2014,08,09,06,57,15.90
2014,08,09,06,58,15.90
2014,08,09,06,59,15.90
2014,08,09,07,00,15.90
2014,08,09,07,01,15.90
2014,08,09,07,02,15.90
2014,08,09,07,03,15.90
2014,08,09,07,04,15.90
2014,08,09,07,05,15.90
2014,08,09,07,06,15.90
2014,08,09,07,07,15.90
2014,08,09,07,08,15.90
2014,08,09,07,09,15.90
2014,08,09,07,10,16.00
2014,08,09,07,11,16.00
2014,08,09,07,12,16.10
2014,08,09,07,13,16.10
2014,08,09,07,14,16.20
2014,08,09,07,15,16.30
2014,08,09,07,16,16.30
2014,08,09,07,17,16.40
2014,08,09,07,18,16.50
2014,08,09,07,19,16.50
2014,08,09,07,20,16.60
2014,08,09,07,21,16.60
2014,08,09,07,22,16.70
2014,08,09,07,23,16.70
2014,08,09,07,24,16.80
2014,08,09,07,25,16.80
2014,08,09,07,26,16.90
2014,08,09,07,27,16.90
2014,08,09,07,28,17.00
2014,08,09,07,29,17.10
2014,08,09,07,30,17.20
2014,08,09,07,31,17.20
2014,08,09,07,32,17.30
2014,08,09,07,33,17.30
2014,08,09,07,34,17.30
2014,08,09,07,35,17.30
2014,08,09,07,36,17.40
2014,08,09,07,37,17.40
2014,08,09,07,38,17.40
2014,08,09,07,39,17.40
2014,08,09,07,40,17.50
2014,08,09,07,41,17.50
2014,08,09,07,42,17.60
2014,08,09,07,43,17.60
2014,08,09,07,44,17.60
2014,08,09,07,45,17.70
2014,08,09,07,46,17.70
2014,08,09,07,47,17.70
2014,08,09,07,48,17.80
2014,08,09,07,49,17.80
2014,08,09,07,50,17.90
2014,08,09,07,51,17.90
2014,08,09,07,52,17.90
2014,08,09,07,53,18.00
2014,08,09,07,54,18.00
2014,08,09,07,55,18.10
2014,08,09,07,56,18.10
2014,08,09,07,57,18.20
2014,08,09,07,58,18.20
2014,08,09,07,59,18.20
2014,08,09,08,00,18.30
2014,08,09,08,01,18.30
2014,08,09,08,02,18.30
2014,08,09,08,03,18.40
2014,08,09,08,04,18.40
2014,08,09,08,05,18.40
2014,08,09,08,06,18.50
2014,08,09,08,07,18.50
2014,08,09,08,08,18.60
2014,08,09,08,09,18.60
2014,08,09,08,10,18.60
2014,08,09,08,11,18.70
2014,08,09,08,12,18.70
2014,08,09,08,13,18.70
2014,08,09,08,14,18.70
2014,08,09,08,15,18.70
2014,08,09,08,16,18.70
2014,08,09,08,17,18.70
2014,08,09,08,18,18.70
2014,08,09,08,19,18.70
2014,08,09,08,20,18.70
2014,08,09,08,21,18.80
2014,08,09,08,22,18.80
2014,08,09,08,23,18.80
2014,08,09,08,24,18.80
2014,08,09,08,25,18.80
2014,08,09,08,26,18.80
2014,08,09,08,27,18.80
2014,08,09,08,28,18.80
2014,08,09,08,29,18.80
2014,08,09,08,30,18.80
2014,08,09,08,31,18.80
2014,08,09,08,32,18.90
2014,08,09,08,33,18.90
2014,08,09,08,34,18.90
2014,08,09,08,35,19.00
2014,08,09,08,36,19.00
2014,08,09,08,37,19.00
2014,08,09,08,38,19.10
2014,08,09,08,39,19.10
2014,08,09,08,40,19.10
2014,08,09,08,41,19.10
2014,08,09,08,42,19.10
2014,08,09,08,43,19.10
2014,08,09,08,44,19.20
2014,08,09,08,45,19.20
2014,08,09,08,46,19.20
2014,08,09,08,47,19.30
2014,08,09,08,48,19.30
2014,08,09,08,49,19.30
2014,08,09,08,50,19.30
2014,08,09,08,51,19.30
2014,08,09,08,52,19.30
2014,08,09,08,53,19.30
2014,08,09,08,54,19.40
2014,08,09,08,55,19.40
2014,08,09,08,56,19.40
2014,08,09,08,57,19.50
2014,08,09,08,58,19.50
2014,08,09,08,59,19.60
2014,08,09,09,00,19.60
2014,08,09,09,01,19.60
2014,08,09,09,02,19.60
2014,08,09,09,03,19.70
2014,08,09,09,04,19.70
2014,08,09,09,05,19.70
2014,08,09,09,06,19.80
2014,08,09,09,07,19.80
2014,08,09,09,08,19.80
2014,08,09,09,09,19.80
2014,08,09,09,10,19.80
2014,08,09,09,11,19.90
2014,08,09,09,12,19.90
2014,08,09,09,13,19.90
2014,08,09,09,14,19.90
2014,08,09,09,15,20.00
2014,08,09,09,16,20.00
2014,08,09,09,17,20.10
2014,08,09,09,18,20.10
2014,08,09,09,19,20.20
2014,08,09,09,20,20.20
2014,08,09,09,21,20.20
2014,08,09,09,22,20.20
2014,08,09,09,23,20.20
2014,08,09,09,24,20.20
2014,08,09,09,25,20.10
2014,08,09,09,26,20.20
2014,08,09,09,27,20.20
2014,08,09,09,28,20.20
2014,08,09,09,29,20.20
2014,08,09,09,30,20.20
2014,08,09,09,31,20.30
2014,08,09,09,32,20.30
2014,08,09,09,33,20.30
2014,08,09,09,34,20.30
2014,08,09,09,35,20.30
2014,08,09,09,36,20.30
2014,08,09,09,37,20.30
2014,08,09,09,38,20.30
2014,08,09,09,39,20.30
2014,08,09,09,40,20.30
2014,08,09,09,41,20.40
2014,08,09,09,42,20.40
2014,08,09,09,43,20.40
2014,08,09,09,44,20.40
2014,08,09,09,45,20.40
2014,08,09,09,46,20.40
2014,08,09,09,47,20.40
2014,08,09,09,48,20.40
2014,08,09,09,49,20.40
2014,08,09,09,50,20.40
2014,08,09,09,51,20.30
2014,08,09,09,52,20.40
2014,08,09,09,53,20.40
2014,08,09,09,54,20.40
2014,08,09,09,55,20.50
2014,08,09,09,56,20.50
2014,08,09,09,57,20.60
2014,08,09,09,58,20.60
2014,08,09,09,59,20.70
2014,08,09,10,00,20.70
2014,08,09,10,01,20.80
2014,08,09,10,02,20.90
2014,08,09,10,03,20.90
2014,08,09,10,04,20.90
2014,08,09,10,05,20.90
2014,08,09,10,06,20.90
2014,08,09,10,07,20.90
2014,08,09,10,08,20.90
2014,08,09,10,09,20.90
2014,08,09,10,10,20.90
2014,08,09,10,11,20.80
2014,08,09,10,12,20.80
2014,08,09,10,13,20.70
2014,08,09,10,14,20.80
2014,08,09,10,15,20.90
2014,08,09,10,16,20.90
2014,08,09,10,17,20.90
2014,08,09,10,18,21.00
2014,08,09,10,19,20.90
2014,08,09,10,20,21.00
2014,08,09,10,21,21.00
2014,08,09,10,22,21.00
2014,08,09,10,23,20.90
2014,08,09,10,24,20.90
2014,08,09,10,25,20.90
2014,08,09,10,26,20.90
2014,08,09,10,27,20.90
2014,08,09,10,28,20.90
2014,08,09,10,29,21.00
2014,08,09,10,30,21.10
2014,08,09,10,31,21.10
2014,08,09,10,32,21.20
2014,08,09,10,33,21.30
2014,08,09,10,34,21.30
2014,08,09,10,35,21.20
2014,08,09,10,36,21.20
2014,08,09,10,37,21.20
2014,08,09,10,38,21.20
2014,08,09,10,39,21.20
2014,08,09,10,40,21.20
2014,08,09,10,41,21.20
2014,08,09,10,42,21.20
2014,08,09,10,43,21.20
2014,08,09,10,44,21.20
2014,08,09,10,45,21.20
2014,08,09,10,46,21.20
2014,08,09,10,47,21.20
2014,08,09,10,48,21.20
2014,08,09,10,49,21.20
2014,08,09,10,50,21.10
2014,08,09,10,51,21.10
2014,08,09,10,52,21.10
2014,08,09,10,53,21.10
2014,08,09,10,54,21.10
2014,08,09,10,55,21.10
2014,08,09,10,56,21.10
2014,08,09,10,57,21.10
2014,08,09,10,58,21.20
2014,08,09,10,59,21.20
2014,08,09,11,00,21.20
2014,08,09,11,01,21.20
2014,08,09,11,02,21.30
2014,08,09,11,03,21.40
2014,08,09,11,04,21.40
2014,08,09,11,05,21.50
2014,08,09,11,06,21.60
2014,08,09,11,07,21.60
2014,08,09,11,08,21.60
2014,08,09,11,09,21.70
2014,08,09,11,10,21.60
2014,08,09,11,11,21.60
2014,08,09,11,12,21.60
2014,08,09,11,13,21.60
2014,08,09,11,14,21.60
2014,08,09,11,15,21.60
2014,08,09,11,16,21.60
2014,08,09,11,17,21.60
2014,08,09,11,18,21.60
2014,08,09,11,19,21.60
2014,08,09,11,20,21.60
2014,08,09,11,21,21.60
2014,08,09,11,22,21.60
2014,08,09,11,23,21.70
2014,08,09,11,24,21.70
2014,08,09,11,25,21.80
2014,08,09,11,26,21.80
2014,08,09,11,27,21.80
2014,08,09,11,28,21.70
2014,08,09,11,29,21.70
2014,08,09,11,30,21.60
2014,08,09,11,31,21.60
2014,08,09,11,32,21.60
2014,08,09,11,33,21.50
2014,08,09,11,34,21.50
2014,08,09,11,35,21.50
2014,08,09,11,36,21.50
2014,08,09,11,37,21.40
2014,08,09,11,38,21.50
2014,08,09,11,39,21.50
2014,08,09,11,40,21.60
2014,08,09,11,41,21.70
2014,08,09,11,42,21.70
2014,08,09,11,43,21.70
2014,08,09,11,44,21.70
2014,08,09,11,45,21.70
2014,08,09,11,46,21.70
2014,08,09,11,47,21.70
2014,08,09,11,48,21.70
2014,08,09,11,49,21.80
2014,08,09,11,50,21.80
2014,08,09,11,51,21.90
2014,08,09,11,52,21.90
2014,08,09,11,53,22.00
2014,08,09,11,54,22.00
2014,08,09,11,55,22.10
2014,08,09,11,56,22.10
2014,08,09,11,57,22.00
2014,08,09,11,58,21.90
2014,08,09,11,59,22.00
2014,08,09,12,00,22.00
2014,08,09,12,01,22.00
2014,08,09,12,02,22.00
2014,08,09,12,03,22.00
2014,08,09,12,04,22.00
2014,08,09,12,05,22.00
2014,08,09,12,06,22.10
2014,08,09,12,07,22.00
2014,08,09,12,08,22.00
2014,08,09,12,09,22.00
2014,08,09,12,10,22.00
2014,08,09,12,11,22.00
2014,08,09,12,12,22.00
2014,08,09,12,13,22.00
2014,08,09,12,14,22.00
2014,08,09,12,15,22.10
2014,08,09,12,16,22.10
2014,08,09,12,17,22.10
2014,08,09,12,18,22.10
2014,08,09,12,19,22.00
2014,08,09,12,20,22.00
2014,08,09,12,21,22.00
2014,08,09,12,22,22.00
2014,08,09,12,23,22.00
2014,08,09,12,24,22.00
2014,08,09,12,25,22.10
2014,08,09,12,26,22.10
2014,08,09,12,27,22.20
2014,08,09,12,28,22.30
2014,08,09,12,29,22.40
2014,08,09,12,30,22.40
2014,08,09,12,31,22.40
2014,08,09,12,32,22.30
2014,08,09,12,33,22.30
2014,08,09,12,34,22.40
2014,08,09,12,35,22.40
2014,08,09,12,36,22.40
2014,08,09,12,37,22.30
2014,08,09,12,38,22.30
2014,08,09,12,39,22.30
2014,08,09,12,40,22.30
2014,08,09,12,41,22.30
2014,08,09,12,42,22.30
2014,08,09,12,43,22.30
2014,08,09,12,44,22.30
2014,08,09,12,45,22.30
2014,08,09,12,46,22.30
2014,08,09,12,47,22.30
2014,08,09,12,48,22.30
2014,08,09,12,49,22.30
2014,08,09,12,50,22.30
2014,08,09,12,51,22.30
2014,08,09,12,52,22.30
2014,08,09,12,53,22.40
2014,08,09,12,54,22.50
2014,08,09,12,55,22.50
2014,08,09,12,56,22.50
2014,08,09,12,57,22.50
2014,08,09,12,58,22.50
2014,08,09,12,59,22.50
2014,08,09,13,00,22.50
2014,08,09,13,01,22.50
2014,08,09,13,02,22.50
2014,08,09,13,03,22.60
2014,08,09,13,04,22.60
2014,08,09,13,05,22.60
2014,08,09,13,06,22.60
2014,08,09,13,07,22.60
2014,08,09,13,08,22.60
2014,08,09,13,09,22.70
2014,08,09,13,10,22.70
2014,08,09,13,11,22.80
2014,08,09,13,12,22.90
2014,08,09,13,13,23.00
2014,08,09,13,14,23.10
2014,08,09,13,15,23.10
2014,08,09,13,16,23.10
2014,08,09,13,17,23.10
2014,08,09,13,18,23.20
2014,08,09,13,19,23.20
2014,08,09,13,20,23.20
2014,08,09,13,21,23.20
2014,08,09,13,22,23.20
2014,08,09,13,23,23.30
2014,08,09,13,24,23.30
2014,08,09,13,25,23.40
2014,08,09,13,26,23.40
2014,08,09,13,27,23.40
2014,08,09,13,28,23.40
2014,08,09,13,29,23.40
2014,08,09,13,30,23.40
2014,08,09,13,31,23.30
2014,08,09,13,32,23.30
2014,08,09,13,33,23.40
2014,08,09,13,34,23.40
2014,08,09,13,35,23.40
2014,08,09,13,36,23.40
2014,08,09,13,37,23.50
2014,08,09,13,38,23.60
2014,08,09,13,39,23.60
2014,08,09,13,40,23.70
2014,08,09,13,41,23.80
2014,08,09,13,42,23.90
2014,08,09,13,43,24.00
2014,08,09,13,44,24.10
2014,08,09,13,45,24.10
2014,08,09,13,46,24.10
2014,08,09,13,47,24.10
2014,08,09,13,48,24.10
2014,08,09,13,49,24.10
2014,08,09,13,50,24.10
2014,08,09,13,51,24.10
2014,08,09,13,52,24.10
2014,08,09,13,53,24.20
2014,08,09,13,54,24.20
2014,08,09,13,55,24.20
2014,08,09,13,56,24.20
2014,08,09,13,57,24.20
2014,08,09,13,58,24.10
2014,08,09,13,59,24.10
2014,08,09,14,00,24.10
2014,08,09,14,01,24.10
2014,08,09,14,02,24.10
2014,08,09,14,03,24.00
2014,08,09,14,04,24.00
2014,08,09,14,05,24.00
2014,08,09,14,06,23.90
2014,08,09,14,07,23.90
2014,08,09,14,08,23.90
2014,08,09,14,09,24.00
2014,08,09,14,10,24.10
2014,08,09,14,11,24.20
2014,08,09,14,12,24.30
2014,08,09,14,13,24.30
2014,08,09,14,14,24.20
2014,08,09,14,15,24.10
2014,08,09,14,16,24.10
2014,08,09,14,17,24.10
2014,08,09,14,18,24.10
2014,08,09,14,19,24.10
2014,08,09,14,20,24.10
2014,08,09,14,21,24.10
2014,08,09,14,22,24.10
2014,08,09,14,23,24.10
2014,08,09,14,24,24.10
2014,08,09,14,25,24.10
2014,08,09,14,26,24.10
2014,08,09,14,27,24.20
2014,08,09,14,28,24.20
2014,08,09,14,29,24.30
2014,08,09,14,30,24.30
2014,08,09,14,31,24.40
2014,08,09,14,32,24.40
2014,08,09,14,33,24.50
2014,08,09,14,34,24.50
2014,08,09,14,35,24.40
2014,08,09,14,36,24.40
2014,08,09,14,37,24.40
2014,08,09,14,38,24.40
2014,08,09,14,39,24.40
2014,08,09,14,40,24.40
2014,08,09,14,41,24.40
2014,08,09,14,42,24.50
2014,08,09,14,43,24.60
2014,08,09,14,44,24.60
2014,08,09,14,45,24.60
2014,08,09,14,46,24.50
2014,08,09,14,47,24.50
2014,08,09,14,48,24.40
2014,08,09,14,49,24.40
2014,08,09,14,50,24.50
2014,08,09,14,51,24.50
2014,08,09,14,52,24.60
2014,08,09,14,53,24.50
2014,08,09,14,54,24.40
2014,08,09,14,55,24.40
2014,08,09,14,56,24.40
2014,08,09,14,57,24.40
2014,08,09,14,58,24.40
2014,08,09,14,59,24.40
2014,08,09,15,00,24.50
2014,08,09,15,01,24.60
2014,08,09,15,02,24.60
2014,08,09,15,03,24.70
2014,08,09,15,04,24.70
2014,08,09,15,05,24.70
2014,08,09,15,06,24.70
2014,08,09,15,07,24.70
2014,08,09,15,08,24.70
2014,08,09,15,09,24.60
2014,08,09,15,10,24.60
2014,08,09,15,11,24.60
2014,08,09,15,12,24.60
2014,08,09,15,13,24.60
2014,08,09,15,14,24.70
2014,08,09,15,15,24.70
2014,08,09,15,16,24.80
2014,08,09,15,17,24.90
2014,08,09,15,18,25.00
2014,08,09,15,19,25.00
2014,08,09,15,20,25.10
2014,08,09,15,21,25.10
2014,08,09,15,22,25.10
2014,08,09,15,23,25.10
2014,08,09,15,24,25.10
2014,08,09,15,25,25.10
2014,08,09,15,26,25.20
2014,08,09,15,27,25.20
2014,08,09,15,28,25.20
2014,08,09,15,29,25.20
2014,08,09,15,30,25.30
2014,08,09,15,31,25.30
2014,08,09,15,32,25.40
2014,08,09,15,33,25.40
2014,08,09,15,34,25.40
2014,08,09,15,35,25.50
2014,08,09,15,36,25.50
2014,08,09,15,37,25.60
2014,08,09,15,38,25.60
2014,08,09,15,39,25.70
2014,08,09,15,40,25.70
2014,08,09,15,41,25.70
2014,08,09,15,42,25.70
2014,08,09,15,43,25.70
2014,08,09,15,44,25.60
2014,08,09,15,45,25.60
2014,08,09,15,46,25.60
2014,08,09,15,47,25.70
2014,08,09,15,48,25.70
2014,08,09,15,49,25.80
2014,08,09,15,50,25.90
2014,08,09,15,51,25.90
2014,08,09,15,52,25.80
2014,08,09,15,53,25.80
2014,08,09,15,54,25.80
2014,08,09,15,55,25.70
2014,08,09,15,56,25.70
2014,08,09,15,57,25.70
2014,08,09,15,58,25.80
2014,08,09,15,59,25.80
2014,08,09,16,00,25.80
2014,08,09,16,01,25.80
2014,08,09,16,02,25.90
2014,08,09,16,03,25.90
2014,08,09,16,04,26.00
2014,08,09,16,05,26.00
2014,08,09,16,06,26.10
2014,08,09,16,07,26.00
2014,08,09,16,08,25.90
2014,08,09,16,09,25.90
2014,08,09,16,10,25.90
2014,08,09,16,11,25.80
2014,08,09,16,12,25.80
2014,08,09,16,13,25.80
2014,08,09,16,14,25.80
2014,08,09,16,15,25.80
2014,08,09,16,16,25.90
2014,08,09,16,17,26.00
2014,08,09,16,18,26.00
2014,08,09,16,19,26.00
2014,08,09,16,20,26.10
2014,08,09,16,21,26.20
2014,08,09,16,22,26.20
2014,08,09,16,23,26.30
2014,08,09,16,24,26.30
2014,08,09,16,25,26.40
2014,08,09,16,26,26.40
2014,08,09,16,27,26.40
2014,08,09,16,28,26.40
2014,08,09,16,29,26.50
2014,08,09,16,30,26.50
2014,08,09,16,31,26.50
2014,08,09,16,32,26.50
2014,08,09,16,33,26.50
2014,08,09,16,34,26.60
2014,08,09,16,35,26.60
2014,08,09,16,36,26.60
2014,08,09,16,37,26.60
2014,08,09,16,38,26.60
2014,08,09,16,39,26.70
2014,08,09,16,40,26.80
2014,08,09,16,41,26.80
2014,08,09,16,42,26.80
2014,08,09,16,43,26.80
2014,08,09,16,44,26.80
2014,08,09,16,45,26.90
2014,08,09,16,46,26.90
2014,08,09,16,47,26.90
2014,08,09,16,48,26.90
2014,08,09,16,49,26.90
2014,08,09,16,50,26.90
2014,08,09,16,51,27.00
2014,08,09,16,52,27.00
2014,08,09,16,53,26.90
2014,08,09,16,54,26.90
2014,08,09,16,55,26.90
2014,08,09,16,56,26.80
2014,08,09,16,57,26.80
2014,08,09,16,58,26.80
2014,08,09,16,59,26.80
2014,08,09,17,00,26.70
2014,08,09,17,01,26.70
2014,08,09,17,02,26.70
2014,08,09,17,03,26.60
2014,08,09,17,04,26.60
2014,08,09,17,05,26.70
2014,08,09,17,06,26.70
2014,08,09,17,07,26.70
2014,08,09,17,08,26.70
2014,08,09,17,09,26.70
2014,08,09,17,10,26.60
2014,08,09,17,11,26.60
2014,08,09,17,12,26.60
2014,08,09,17,13,26.60
2014,08,09,17,14,26.60
2014,08,09,17,15,26.70
2014,08,09,17,16,26.80
2014,08,09,17,17,26.80
2014,08,09,17,18,26.80
2014,08,09,17,19,26.90